Temperature
15 15 15 15 15 15 15 15 15 14 14 14 14 14 14 14 14 14 13 13 13 13 13 13 13 13 13 12 12 12 12 12 12 12 12 12 12 11 11 11 11 12 12
15 15 15 15 15 14 15 14 14 14 14 14 14 14 14 14 14 13 13 13 13 13 13 13 13 13 12 12 12 12 12 12 12 12 11 11 11 11 11 11 11 11 11
15 15 14 14 14 14 14 14 14 14 14 14 14 14 14 14 14 13 13 13 13 13 13 13 13 12 12 12 12 12 12 11 11 11 11 11 11 11 11 11 11 11 11
14 14 14 14 14 14 14 14 14 14 14 14 14 14 14 14 14 13 13 13 13 13 13 13 12 12 12 12 12 11 11 11 11 11 11 11 11 11 11 10 10 10 10
14 14 14 14 14 14 14 14 14 14 14 14 14 13 14 14 13 13 13 13 13 13 12 12 12 12 12 11 11 11 11 11 10 10 10 10 10 10 10 10 10 10 10
14 14 14 14 14 14 14 14 14 14 13 14 13 13 13 13 13 13 13 13 13 12 12 12 12 11 11 11 11 11 10 10 10 10 10 10 10 10 10 10 10 10 10
14 14 14 14 14 14 14 14 14 14 13 13 13 13 13 13 13 13 13 13 12 12 12 12 11 11 11 11 10 10 10 10 10 9 9 9 9 9 9 9 9 9 9
14 14 14 14 14 14 14 14 14 13 13 13 13 13 12 12 13 12 12 12 12 12 12 11 11 10 10 10 10 10 9 9 9 9 9 9 9 9 9 9 9 9 9
13 13 14 14 14 14 14 14 14 14 14 13 13 13 12 12 12 12 12 12 12 11 11 11 10 10 10 9 9 9 9 9 8 8 8 8 8 8 8 8 8 8 8
13 13 14 14 14 14 14 14 14 13 13 13 13 13 13 12 12 11 11 11 11 10 10 10 10 9 9 9 9 9 8 8 8 8 8 8 8 8 8 8 8 8 8
13 13 13 13 13 13 13 13 13 13 13 13 13 13 12 12 12 11 11 10 10 10 10 9 9 9 9 8 8 8 7 7 7 7 7 7 7 7 7 7 7 7 7
12 12 12 13 13 13 13 13 13 13 13 12 12 12 12 12 12 11 11 10 10 9 9 9 8 8 8 8 7 7 7 6 6 7 7 7 7 7 7 7 7 7 7
12 12 12 12 12 12 12 12 12 12 12 12 12 12 12 11 11 11 10 10 9 9 8 8 8 8 7 7 7 6 6 6 6 6 6 6 6 6 6 6 6 6 6
12 12 12 12 12 12 12 12 12 12 12 12 12 11 11 11 11 11 10 10 9 8 8 7 7 7 7 6 6 6 5 5 5 5 5 5 5 5 5 5 5 5 5
12 12 12 12 11 11 11 11 11 11 11 11 11 11 11 11 11 10 10 9 9 8 7 7 7 7 6 6 5 5 5 5 5 5 4 4 4 4 4 4 4 5 5
11 11 11 11 11 11 11 11 11 10 10 10 10 10 10 10 10 10 10 9 8 8 7 6 6 6 5 5 5 4 4 4 4 4 4 4 4 4 4 4 4 4 4
10 10 10 10 10 10 10 10 10 10 10 10 10 10 9 9 9 9 9 8 8 7 6 6 5 5 5 4 4 4 3 3 3 3 3 3 3 3 3 3 4 4 4
10 10 10 10 10 10 9 9 9 9 9 9 9 9 9 9 9 8 8 8 7 7 6 5 5 4 4 4 3 3 3 3 3 3 2 3 3 3 3 3 3 3 4
9 9 9 9 9 9 9 9 9 9 9 9 9 9 8 8 8 8 8 7 7 6 5 5 4 4 3 3 3 3 2 2 2 2 2 2 2 2 2 3 3 3 3
8 8 8 8 8 8 8 8 8 8 8 8 8 8 8 8 8 7 7 7 6 6 5 4 4 3 3 3 2 2 2 2 2 2 2 2 2 2 2 2 2 2 2
8 8 8 8 8 8 8 8 8 8 7 7 7 7 7 7 7 7 6 6 6 5 5 4 3 3 3 2 2 2 2 1 1 1 1 2 2 2 2 2 2 2 2
7 7 7 7 7 7 7 7 7 7 7 7 7 7 7 7 6 6 6 6 5 5 4 4 3 3 2 2 2 1 1 1 1 1 1 1 1 1 1 1 1 1 1
6 6 6 6 6 6 6 6 6 6 6 6 6 6 6 6 6 6 5 5 5 4 4 3 3 3 2 2 2 1 1 1 1 1 1 1 1 1 1 1 1 1 1
5 5 5 5 5 5 5 5 6 6 6 6 6 6 5 5 5 5 5 4 4 4 3 3 2 2 2 2 1 1 1 1 1 1 1 1 1 1 1 1 1 1 1
4 4 4 5 5 5 5 5 5 5 5 5 5 5 5 5 5 4 4 4 3 3 3 2 2 2 2 1 1 1 1 1 1 1 0 0 1 1 1 1 1 1 1
4 4 4 4 4 4 4 4 4 4 4 5 4 4 4 4 4 3 3 3 3 2 2 2 2 1 1 1 1 1 1 1 0 0 0 0 0 0 0 1 1 0 0
Wind_Speed
7 7 7 9 9 10 9 7 6 6 5 5 5 3 3 4 3 5 8 8 6 3 2 3 4 4 4 4 3 2 2 3 3 3 3 4 4 4 5 5 5 5 5
6 6 5 5 6 8 8 7 5 3 2 2 2 2 2 1 1 3 6 7 6 4 2 2 3 3 2 1 0 1 2 2 3 3 3 4 4 5 5 6 6 6 6
9 6 5 5 5 8 7 5 3 2 2 2 2 1 0 1 2 2 3 5 5 4 2 1 2 2 1 0 1 1 2 3 3 4 4 4 5 5 6 7 7 7 6
11 6 5 5 6 6 4 3 2 2 2 2 1 1 1 1 1 2 3 4 4 4 2 1 1 1 1 1 2 3 3 3 3 4 5 5 5 6 7 7 7 7 6
12 7 5 5 7 4 3 3 2 2 2 2 1 1 1 1 1 2 3 4 5 5 4 3 3 3 3 3 3 3 4 4 4 4 4 5 6 6 7 7 7 6 6
10 8 5 6 6 4 4 3 3 2 2 2 1 1 1 2 2 2 2 4 5 5 5 4 4 4 5 5 5 4 4 4 3 4 5 6 7 7 7 8 7 6 6
9 7 5 6 5 5 5 5 3 3 2 2 1 0 1 2 3 3 2 3 4 5 6 6 6 6 6 7 7 5 4 4 3 3 5 6 7 7 8 7 7 6 6
8 7 7 6 6 5 5 5 4 3 2 3 3 2 1 1 1 3 3 3 3 5 5 6 7 7 6 6 7 7 6 5 4 4 5 6 7 7 7 7 7 8 7
6 6 6 6 6 6 5 5 5 5 4 3 3 3 2 3 1 1 3 3 4 3 3 5 6 6 6 6 6 7 8 6 6 6 5 6 7 8 8 8 8 9 8
6 6 5 6 6 5 5 5 5 4 5 4 2 2 2 2 2 1 1 2 4 4 4 3 5 6 6 6 6 7 7 7 7 6 7 7 8 9 9 10 10 10 9
5 5 5 5 6 5 5 5 5 5 4 4 4 2 2 1 2 3 3 2 1 2 3 4 4 5 5 5 6 6 7 7 7 7 7 8 9 9 9 9 10 10 10
4 5 5 5 5 5 6 5 5 5 4 4 4 3 3 3 3 3 3 3 3 2 3 3 4 5 5 5 5 6 6 7 7 7 8 9 10 10 10 10 10 10 10
4 5 5 5 5 5 5 5 5 5 5 5 4 3 3 3 2 2 3 2 1 1 2 2 3 5 5 5 4 4 5 7 7 7 8 9 9 10 9 10 9 9 10
5 6 6 5 5 5 5 5 4 4 4 5 5 4 3 2 2 2 3 3 2 1 2 3 2 4 5 5 4 4 5 6 7 7 8 9 9 9 9 9 9 9 9
4 6 6 6 5 5 6 6 4 4 4 4 4 5 4 3 3 2 2 3 4 3 3 3 2 3 5 5 4 4 5 5 6 7 7 8 8 8 8 8 9 9 9
5 6 6 6 6 6 6 5 5 5 5 4 4 5 4 4 4 3 3 2 3 3 2 1 2 3 4 4 3 4 4 4 5 5 6 6 6 7 7 8 8 9 9
5 6 6 6 7 7 7 6 6 7 7 6 5 6 5 5 4 4 3 3 2 3 3 1 2 2 3 3 2 2 3 3 4 4 4 4 5 5 6 7 7 8 9
4 5 6 6 6 7 7 7 7 7 7 8 8 7 7 5 5 4 4 4 3 3 3 3 2 2 2 3 3 2 1 2 3 3 3 3 3 4 5 6 7 7 8
2 4 5 6 6 7 7 7 7 7 7 8 8 8 8 8 7 5 5 5 4 3 3 3 2 2 2 2 2 1 1 1 2 3 2 2 2 3 4 5 6 7 8
2 3 4 5 6 6 7 7 7 7 7 7 7 7 8 8 8 8 6 6 5 4 4 3 3 3 2 2 2 2 2 2 2 2 2 2 1 2 2 4 5 6 7
2 2 3 4 4 5 6 7 7 8 8 7 6 6 6 7 8 8 6 6 6 5 4 4 4 3 3 3 4 3 3 2 2 1 1 2 2 1 1 3 4 5 5
2 2 3 4 4 4 7 10 8 7 7 8 7 6 6 7 9 10 9 8 8 7 6 5 4 4 5 5 4 3 3 3 2 2 2 2 2 1 2 3 3 3 4
2 3 3 4 4 6 9 11 11 7 7 8 8 8 6 7 9 7 8 9 7 7 6 5 5 5 5 6 6 5 4 3 3 3 2 2 1 2 3 3 2 2 3
3 4 4 4 4 6 10 11 11 7 7 8 9 9 9 8 9 9 7 6 5 5 4 3 3 3 3 4 6 6 5 3 2 1 2 2 2 2 2 3 2 2 2
4 4 4 5 5 6 10 12 11 6 6 7 8 8 9 9 14 15 10 8 6 4 5 5 5 5 6 7 8 5 5 4 2 2 2 2 2 1 1 1 3 3 2
5 4 5 5 6 7 10 13 13 6 7 7 7 8 12 12 15 16 10 9 8 6 6 5 4 4 4 5 7 5 6 4 3 3 3 3 2 2 1 1 2 2 2
Wind_Direction
154 158 165 170 179 181 174 187 212 203 203 195 204 214 210 216 196 142 156 164 169 184 236 277 290 292 282 277 272 297 328 330 323 310 303 296 297 308 317 320 322 323 324
159 159 160 169 177 172 174 195 208 184 180 170 195 222 235 249 75 104 146 169 175 187 215 263 292 306 307 295 263 53 37 10 5 356 342 331 310 297 297 301 302 306 308
161 160 157 166 169 168 175 193 201 171 163 160 203 219 154 54 41 49 114 143 166 184 196 237 272 296 295 336 79 69 48 36 28 24 10 351 332 312 299 296 296 291 297
166 164 157 169 165 165 172 176 170 156 157 160 195 208 137 105 57 47 76 92 104 116 135 123 80 36 57 108 95 74 47 49 49 38 23 10 358 343 324 308 299 294 290
170 166 161 167 164 161 165 172 162 154 169 182 196 171 128 127 150 91 77 85 85 86 92 109 96 74 74 90 94 77 58 59 55 44 23 9 1 350 342 330 315 303 298
170 166 163 166 161 158 163 168 170 168 166 170 175 162 184 177 141 112 101 96 99 87 74 90 93 85 76 81 80 71 59 53 51 43 29 16 7 1 355 348 336 319 308
176 168 166 165 160 164 168 169 167 169 175 137 108 243 257 197 148 138 121 102 101 95 81 74 79 83 81 74 64 57 45 31 22 18 10 5 1 357 354 351 351 341 333
177 172 166 164 161 162 168 172 165 159 167 153 152 158 212 274 222 150 131 118 115 100 85 77 73 72 79 78 63 52 40 27 14 1 0 357 354 355 357 358 359 358 342
171 172 169 162 165 170 174 175 168 165 177 182 171 161 168 210 179 180 166 148 137 123 110 95 83 71 73 79 66 48 37 25 14 8 10 10 5 4 3 7 8 3 356
166 168 169 166 169 173 175 177 168 167 168 178 189 188 170 136 147 193 206 166 143 131 127 111 104 87 72 73 68 53 41 33 29 26 21 24 24 19 18 22 21 17 12
163 164 170 171 169 172 181 179 172 175 175 177 181 179 193 197 193 180 212 197 171 149 129 116 110 101 85 76 67 53 45 37 31 27 32 35 32 25 23 22 20 17 13
166 175 181 181 175 176 180 185 177 178 185 179 181 179 173 179 199 195 206 199 188 175 131 111 103 100 93 85 70 57 52 44 35 35 43 41 33 29 25 20 18 15 12
179 184 182 182 182 180 176 173 173 179 182 179 182 186 185 183 158 157 172 189 175 161 143 127 114 113 106 101 80 65 59 52 45 44 44 43 39 32 26 19 16 15 11
189 180 179 179 180 178 175 172 171 178 179 181 183 178 167 163 150 148 163 164 179 219 190 165 119 119 112 105 90 74 72 67 60 57 55 50 44 37 31 23 17 13 12
179 176 181 182 183 180 177 173 176 178 174 178 178 175 169 167 150 147 152 160 170 200 215 156 134 127 122 113 104 86 84 83 77 74 66 56 46 37 33 27 18 14 13
177 179 183 181 182 182 176 175 174 175 176 173 169 167 171 165 153 151 160 168 164 174 200 137 127 138 125 121 121 106 102 93 90 85 70 60 47 40 36 30 25 20 17
179 185 184 184 184 182 181 181 182 179 181 176 172 175 180 165 159 159 152 159 169 162 188 157 98 120 128 135 132 119 115 105 101 94 77 62 51 44 36 34 28 24 21
182 182 180 185 188 186 185 186 184 182 185 186 183 179 179 169 165 161 158 173 178 175 174 188 164 145 145 153 149 145 133 121 119 109 95 76 64 51 39 35 32 27 25
187 185 184 190 191 191 188 187 186 182 186 188 183 180 177 169 175 171 171 177 174 169 162 171 173 146 142 151 144 159 174 159 134 139 137 113 83 64 52 44 39 35 31
200 197 198 197 193 191 187 184 183 181 182 181 177 175 176 177 179 175 178 177 169 169 172 176 179 167 160 156 157 183 204 205 195 175 173 150 130 92 69 56 48 43 39
221 207 202 198 191 191 191 186 183 182 180 176 172 171 172 171 171 173 174 174 172 176 181 187 185 173 174 169 191 186 191 180 195 179 170 210 196 180 103 68 53 48 50
234 222 214 206 202 204 198 195 186 181 178 175 173 166 163 162 169 176 174 174 174 177 184 186 189 192 198 192 177 172 162 152 219 224 159 222 176 156 136 103 65 60 63
257 243 230 218 220 215 203 201 194 180 178 178 176 172 177 182 176 169 179 181 185 191 187 175 188 199 195 187 167 167 174 175 195 184 140 207 192 177 159 130 105 90 82
268 254 243 230 228 222 208 204 197 184 179 182 181 180 180 176 177 170 167 169 179 185 183 176 180 189 170 154 159 165 164 136 96 108 136 177 194 186 166 154 156 135 111
272 259 249 234 230 229 213 206 197 185 188 189 189 186 183 180 186 182 171 171 176 179 174 162 150 143 142 148 147 133 141 142 169 209 184 160 169 146 161 186 181 176 159
273 258 252 242 230 228 218 211 201 194 196 194 193 195 195 189 190 188 175 173 181 184 166 161 158 154 150 159 162 160 162 161 159 190 195 159 151 127 203 251 188 198 226
Height
1522 1526 1529 1532 1535 1538 1540 1542 1544 1546 1548 1549 1550 1551 1552 1553 1553 1552 1552 1551 1551 1550 1549 1549 1548 1548 1547 1547 1546 1546 1546 1545 1545 1544 1543 1543 1542 1541 1540 1540 1539 1538 1538
1521 1524 1528 1531 1534 1537 1539 1541 1543 1545 1547 1548 1549 1550 1551 1551 1551 1551 1550 1549 1549 1548 1547 1547 1546 1546 1546 1545 1545 1544 1544 1543 1543 1542 1542 1541 1540 1539 1538 1538 1537 1536 1536
1519 1522 1526 1529 1532 1535 1537 1540 1542 1544 1545 1546 1547 1548 1549 1549 1549 1549 1549 1548 1547 1546 1545 1545 1544 1544 1544 1543 1543 1542 1542 1541 1541 1540 1539 1539 1538 1537 1536 1535 1535 1534 1534
1517 1520 1523 1527 1530 1533 1535 1537 1539 1541 1542 1544 1545 1546 1546 1547 1547 1547 1546 1546 1545 1544 1543 1543 1542 1542 1542 1541 1541 1540 1540 1540 1539 1538 1537 1537 1536 1535 1534 1533 1532 1532 1531
1515 1518 1521 1524 1527 1530 1533 1535 1537 1538 1540 1541 1542 1543 1544 1544 1544 1544 1544 1544 1543 1542 1541 1541 1540 1540 1540 1539 1539 1538 1538 1538 1537 1536 1536 1535 1534 1533 1532 1530 1530 1529 1529
1512 1515 1518 1521 1524 1527 1529 1531 1533 1535 1537 1538 1540 1540 1541 1541 1542 1541 1541 1541 1541 1540 1540 1539 1538 1538 1537 1537 1537 1536 1536 1536 1535 1534 1533 1532 1531 1530 1529 1528 1527 1526 1526
1509 1512 1515 1518 1521 1523 1525 1528 1530 1532 1534 1535 1537 1538 1538 1539 1539 1539 1539 1539 1538 1538 1537 1537 1536 1536 1535 1535 1534 1534 1534 1533 1533 1532 1531 1530 1529 1528 1527 1526 1525 1524 1523
1506 1509 1512 1514 1517 1520 1522 1525 1527 1528 1530 1532 1534 1534 1536 1537 1536 1536 1536 1536 1536 1535 1535 1534 1534 1533 1533 1532 1532 1532 1531 1531 1530 1530 1529 1528 1527 1526 1524 1523 1522 1521 1521
1503 1505 1508 1511 1513 1516 1518 1521 1523 1524 1526 1528 1529 1531 1532 1533 1533 1533 1533 1533 1533 1532 1532 1531 1531 1530 1530 1529 1529 1529 1529 1528 1528 1527 1526 1525 1524 1523 1522 1520 1519 1518 1518
1499 1501 1504 1507 1509 1512 1514 1516 1518 1520 1522 1523 1525 1527 1528 1529 1530 1530 1530 1530 1530 1529 1528 1528 1527 1527 1527 1526 1526 1526 1525 1525 1525 1524 1523 1522 1521 1520 1519 1518 1517 1516 1515
1495 1498 1500 1503 1505 1507 1510 1512 1514 1516 1517 1519 1521 1522 1523 1524 1525 1526 1526 1526 1526 1526 1525 1524 1524 1523 1523 1523 1522 1522 1522 1522 1521 1521 1520 1519 1518 1517 1516 1515 1514 1513 1512
1491 1494 1497 1499 1500 1503 1506 1508 1509 1511 1512 1514 1516 1517 1518 1519 1520 1521 1522 1522 1522 1522 1521 1521 1520 1520 1519 1519 1519 1519 1519 1518 1518 1517 1516 1515 1514 1513 1512 1512 1511 1510 1509
1487 1490 1492 1494 1496 1499 1501 1503 1504 1506 1508 1509 1511 1512 1513 1514 1515 1516 1517 1518 1518 1517 1517 1517 1516 1516 1515 1515 1515 1515 1515 1515 1515 1514 1513 1512 1511 1510 1509 1508 1507 1506 1505
1483 1485 1487 1489 1492 1493 1495 1497 1499 1501 1502 1504 1505 1506 1508 1509 1510 1511 1512 1513 1513 1513 1513 1513 1512 1512 1512 1512 1511 1511 1511 1511 1511 1510 1510 1509 1508 1506 1505 1504 1504 1503 1502
1478 1480 1483 1484 1486 1488 1490 1492 1493 1495 1497 1498 1499 1501 1502 1503 1504 1505 1506 1507 1509 1508 1508 1508 1508 1508 1508 1508 1508 1508 1508 1507 1507 1507 1506 1505 1504 1503 1502 1501 1501 1500 1499
1473 1475 1477 1478 1481 1483 1484 1486 1487 1488 1490 1491 1493 1495 1496 1498 1499 1499 1501 1502 1502 1503 1504 1503 1503 1504 1505 1505 1505 1504 1504 1504 1504 1503 1503 1502 1501 1500 1499 1498 1498 1497 1497
1469 1471 1472 1473 1475 1477 1478 1480 1481 1482 1484 1486 1488 1489 1491 1492 1493 1494 1495 1496 1497 1497 1498 1499 1499 1500 1500 1500 1501 1501 1501 1501 1501 1500 1500 1499 1498 1497 1496 1496 1495 1495 1494
1464 1465 1467 1468 1470 1471 1473 1474 1475 1476 1478 1480 1482 1484 1485 1487 1488 1489 1490 1491 1491 1492 1493 1494 1494 1495 1495 1496 1496 1497 1497 1497 1497 1497 1497 1496 1495 1495 1494 1493 1493 1492 1492
1459 1460 1461 1463 1464 1466 1467 1468 1470 1471 1473 1475 1476 1477 1479 1481 1482 1484 1484 1485 1486 1487 1488 1489 1490 1491 1491 1492 1492 1493 1494 1494 1494 1494 1494 1493 1492 1492 1491 1491 1490 1490 1490
1456 1456 1457 1458 1459 1461 1462 1463 1464 1466 1468 1469 1471 1472 1474 1476 1477 1478 1479 1480 1481 1482 1483 1484 1484 1485 1487 1487 1488 1489 1490 1490 1491 1491 1491 1490 1490 1489 1489 1488 1488 1488 1488
1453 1453 1453 1453 1454 1456 1457 1458 1459 1461 1462 1464 1465 1467 1468 1470 1472 1473 1474 1475 1476 1477 1478 1479 1479 1481 1482 1482 1483 1485 1486 1486 1487 1487 1487 1487 1487 1487 1487 1487 1486 1486 1486
1449 1449 1449 1450 1450 1451 1452 1453 1454 1455 1457 1458 1460 1462 1463 1465 1467 1468 1469 1470 1471 1472 1473 1474 1475 1476 1477 1478 1479 1481 1482 1482 1483 1485 1484 1485 1485 1485 1484 1485 1485 1485 1485
1445 1445 1445 1445 1445 1446 1447 1448 1449 1450 1451 1453 1454 1456 1458 1459 1461 1463 1464 1465 1466 1467 1468 1470 1470 1471 1472 1473 1475 1476 1478 1479 1479 1481 1482 1482 1482 1482 1483 1483 1483 1483 1483
1441 1441 1441 1441 1440 1441 1442 1442 1443 1444 1445 1447 1449 1450 1452 1454 1456 1457 1459 1460 1461 1462 1463 1464 1466 1467 1468 1470 1471 1473 1474 1475 1476 1477 1478 1479 1479 1480 1481 1481 1481 1481 1482
1437 1436 1436 1436 1435 1436 1437 1437 1438 1438 1440 1441 1443 1444 1446 1448 1450 1451 1453 1455 1456 1457 1459 1460 1461 1463 1464 1466 1467 1469 1470 1471 1472 1474 1475 1476 1476 1477 1478 1478 1479 1479 1480
1432 1431 1431 1430 1430 1430 1431 1431 1432 1433 1434 1435 1437 1438 1440 1442 1444 1445 1447 1449 1451 1452 1454 1456 1457 1458 1460 1461 1463 1465 1466 1468 1468 1470 1472 1473 1473 1475 1475 1476 1476 1477 1478